[[{"header":{"parameterUnit":"m.s-1","parameterCategory":1,"la1":30.2991,"la2":30.254,"lo1":-89.0895,"lo2":-89.0444,"dy":0.0017,"dx":0.0017,"nx":28,"ny":28,"refTime":"2024-05-08T21:00:00:Z","depth":0,"parameterNumber":2,"parameterNumberName":"U-component_of_WINDS"},"data":[0,0,0,0,0,0,0,0,0,0,0,0,0,0,0,0,0,0,0,0,0,0,0,0,0,0,0,0,0,0,0,0,0,0,0,0,0,0,0,0,0,0,0,0,0,0,0,0,0,0,0,0,0,0,0,0,0,0,-0.3872,-0.3871,0,-0.3824,-0.3824,-0.3823,-0.3863,-0.3864,-0.3866,-0.3868,-0.3815,-0.3812,-0.3809,0,0,0,0,0,0,0,0,0,0,0,0,0,-0.3993,-0.3991,-0.3872,-0.3871,-0.387,-0.3824,-0.3824,-0.3823,-0.3862,-0.3864,-0.3866,-0.3868,-0.3816,-0.3812,-0.3809,0,0,0,0,0,0,0,0,0,0,0,0,0,-0.3943,-0.399,-0.3872,-0.3885,-0.3885,-0.3824,-0.3824,-0.3823,-0.3862,-0.3864,-0.3867,-0.3869,-0.3817,-0.3813,-0.3808,-0.3731,0,0,-0.3795,-0.3793,0,0,0,0,0,0,0,0,-0.3945,-0.3938,-0.3883,-0.3884,-0.3884,-0.3852,-0.3847,-0.3792,-0.3861,-0.3871,-0.3868,-0.3871,-0.3825,-0.382,-0.3805,-0.3728,-0.3726,-0.3794,-0.3792,-0.379,-0.3788,0,0,0,0,0,0,0,-0.3949,-0.394,-0.3853,-0.3882,-0.3883,-0.3892,-0.3887,-0.3837,-0.3834,-0.387,-0.3873,-0.3867,-0.3826,-0.381,-0.3804,-0.3725,-0.3794,-0.379,-0.3788,-0.3786,-0.3582,-0.3579,0,0,0,0,0,0,-0.3952,-0.3943,-0.3854,-0.3851,-0.3922,-0.3888,-0.3883,-0.386,-0.3835,-0.3834,-0.3865,-0.3869,-0.3816,-0.381,-0.3803,-0.371,-0.379,-0.3785,-0.3783,-0.3584,-0.3581,-0.3578,0,0,0,0,0,0,-0.3954,-0.3943,-0.3856,-0.3898,-0.3888,-0.3883,-0.3857,-0.3857,-0.3842,-0.3831,-0.383,-0.3849,-0.3818,-0.3809,-0.3749,-0.3708,-0.3783,-0.3779,-0.3588,-0.3583,-0.358,-0.3523,0,0,0,0,0,0,-0.3957,-0.3944,-0.3915,-0.3897,-0.3885,-0.3803,-0.3854,-0.3855,-0.3834,-0.3839,-0.3816,-0.3815,-0.3819,-0.3755,-0.3744,-0.3703,-0.3776,-0.3591,-0.3586,-0.3581,-0.3528,-0.3517,-0.3508,0,0,0,0,0,-0.3962,-0.39,-0.3913,-0.3902,-0.3849,-0.3801,-0.3794,-0.3802,-0.3831,-0.3801,-0.3795,-0.3815,-0.3715,-0.3748,-0.3737,-0.3694,-0.3594,-0.3587,-0.3581,-0.3533,-0.3519,-0.3508,0,0,0,0,0,0,-0.3912,-0.3898,-0.3912,-0.3843,-0.3823,-0.3808,-0.377,-0.3787,-0.3757,-0.3763,-0.3772,-0.3767,-0.3703,-0.3693,-0.373,-0.3618,-0.3659,-0.365,-0.3626,-0.3613,-0.3603,-0.3606,-0.3772,0,0,0,0,0,-0.3893,-0.3856,-0.3846,-0.3786,-0.3775,-0.3775,-0.3754,-0.3762,-0.3741,-0.3732,-0.3721,-0.3698,-0.3662,-0.3638,-0.3603,-0.3528,-0.3523,-0.3493,-0.3483,-0.3475,-0.3466,-0.3425,-0.3411,-0.3558,-0.3558,-0.3558,0,0,-0.3853,-0.3841,-0.3817,-0.3776,-0.3761,-0.3722,-0.3767,-0.3723,-0.3694,-0.3725,-0.3667,-0.3658,-0.3634,-0.3566,-0.3535,-0.3555,-0.3425,-0.3467,-0.346,-0.3456,-0.3417,-0.3403,-0.339,-0.3553,-0.3554,-0.3555,0,0,-0.376,-0.3748,-0.3697,-0.3682,-0.366,-0.366,-0.3647,-0.363,-0.3625,-0.3568,-0.3591,-0.3556,-0.3493,-0.3474,-0.3457,-0.3359,-0.3376,-0.3347,-0.3293,-0.3253,-0.3241,-0.3231,-0.3194,-0.3181,-0.3339,-0.3339,-0.3339,0,-0.3713,-0.3656,-0.3668,-0.3623,-0.3603,-0.3632,-0.3579,-0.3564,-0.3531,-0.3516,-0.354,-0.3462,-0.3448,-0.3375,-0.3351,-0.3337,-0.3322,-0.3349,-0.3242,-0.3232,-0.3222,-0.3188,-0.3174,-0.3336,-0.3336,-0.3336,-0.3337,0,-0.3598,-0.3558,-0.3519,-0.3488,-0.3465,-0.3416,-0.342,-0.3395,-0.3405,-0.3403,-0.3344,-0.3328,-0.3291,-0.3275,-0.3284,-0.3203,-0.3217,-0.3241,-0.3282,-0.3205,-0.3172,-0.3159,-0.3331,-0.3332,-0.3333,-0.3334,0,0,-0.347,-0.3448,-0.3433,-0.3419,-0.3398,-0.3366,-0.3319,-0.3285,-0.3262,-0.3239,-0.3198,-0.3146,-0.3169,-0.3149,-0.3156,-0.3121,-0.3043,-0.315,-0.3149,-0.3129,-0.2951,-0.2931,-0.2916,-0.3056,-0.3053,-0.3051,-0.2953,0,-0.3375,-0.3294,-0.3304,-0.3225,-0.3188,-0.3215,-0.3174,-0.3155,-0.3152,-0.3119,-0.3115,-0.3077,-0.3111,-0.3099,-0.3066,-0.3059,-0.3007,-0.3067,-0.3016,-0.3014,-0.3019,-0.2899,-0.2878,-0.2786,-0.294,-0.2938,-0.2937,0,-0.3253,-0.3227,-0.3145,-0.3129,-0.3114,-0.3076,-0.3045,-0.3014,-0.2994,-0.2994,-0.2973,-0.2987,-0.2938,-0.2983,-0.2915,-0.2956,-0.2936,-0.293,-0.2926,-0.292,-0.2969,-0.2887,-0.2757,-0.2742,-0.2917,-0.2919,-0.292,0,-0.3166,-0.311,-0.3054,-0.3041,-0.3022,-0.2995,-0.2985,-0.2968,-0.2947,-0.292,-0.2906,-0.2873,-0.2855,-0.2829,-0.2833,-0.2865,-0.2764,-0.2809,-0.2761,-0.276,-0.2736,-0.2737,-0.2598,-0.2727,-0.2727,-0.2727,-0.2728,0,-0.3057,-0.3005,-0.3014,-0.2979,-0.2922,-0.2934,-0.2877,-0.2871,-0.2855,-0.2819,-0.2841,-0.2806,-0.2815,-0.278,-0.2784,-0.2727,-0.2719,-0.2716,-0.2717,-0.2713,-0.2713,-0.2698,-0.2704,-0.2724,-0.2725,-0.2725,-0.2726,0,-0.2949,-0.2953,-0.2893,-0.288,-0.2876,-0.2834,-0.2823,-0.2789,-0.2789,-0.2743,-0.2733,-0.2731,-0.2691,-0.2694,-0.2649,-0.2652,-0.2581,-0.259,-0.2587,-0.2589,-0.254,-0.2544,-0.2385,-0.2364,-0.2508,-0.2507,-0.2506,0,-0.2878,-0.2839,-0.2823,-0.2801,-0.279,-0.2753,-0.2732,-0.2743,-0.272,-0.2695,-0.2664,-0.2627,-0.2597,-0.2533,-0.2527,-0.2492,-0.25,-0.2447,-0.2495,-0.2492,-0.2497,-0.2498,-0.2494,-0.2436,-0.2435,-0.2433,-0.2432,0,-0.2752,-0.2756,-0.2725,-0.2695,-0.2669,-0.2645,-0.2624,-0.2604,-0.2613,-0.2586,-0.2546,-0.2524,-0.2479,-0.2441,-0.2408,-0.2398,-0.2415,-0.2418,-0.2405,-0.2398,-0.2398,-0.2396,-0.2559,-0.2421,-0.2422,-0.2423,-0.2423,-0.2424,-0.2659,-0.2625,-0.2608,-0.2573,-0.2559,-0.2538,-0.2506,-0.2503,-0.247,-0.2435,-0.2444,-0.2399,-0.238,-0.2338,-0.2325,-0.2289,-0.2308,-0.2289,-0.2284,-0.2279,-0.2272,-0.2406,-0.2283,-0.2284,-0.2284,-0.2284,-0.2285,0,-0.2532,-0.2523,-0.2491,-0.246,-0.2433,-0.2455,-0.2432,-0.2407,-0.2368,-0.2349,-0.232,-0.2275,-0.2238,-0.2231,-0.2196,-0.2169,-0.2176,-0.2159,-0.216,-0.2157,-0.2258,-0.2272,-0.2154,-0.2154,-0.2154,-0.2154,-0.2154,-0.2154,-0.2462,-0.2406,-0.2409,-0.2346,-0.2337,-0.2294,-0.2279,-0.226,-0.2246,-0.2194,-0.2165,-0.2161,-0.2146,-0.2111,-0.2078,-0.2077,-0.2062,-0.2041,-0.2042,-0.2137,-0.215,-0.2162,-0.2175,-0.2038,-0.2038,-0.1944,-0.1943,-0.1942]},{"header":{"parameterUnit":"m.s-1","parameterCategory":1,"la1":30.2991,"la2":30.254,"lo1":-89.0895,"lo2":-89.0444,"dy":0.0017,"dx":0.0017,"nx":28,"ny":28,"refTime":"2024-05-08T21:00:00:Z","depth":0,"parameterNumber":3,"parameterNumberName":"V-component_of_WINDS"},"data":[0,0,0,0,0,0,0,0,0,0,0,0,0,0,0,0,0,0,0,0,0,0,0,0,0,0,0,0,0,0,0,0,0,0,0,0,0,0,0,0,0,0,0,0,0,0,0,0,0,0,0,0,0,0,0,0,0,0,5.3612,5.3613,0,5.365,5.365,5.365,5.3601,5.36,5.3598,5.3596,5.363,5.3633,5.3635,0,0,0,0,0,0,0,0,0,0,0,0,0,5.3495,5.3497,5.3612,5.3613,5.3613,5.3649,5.365,5.365,5.3602,5.36,5.3597,5.3595,5.3629,5.3632,5.3635,0,0,0,0,0,0,0,0,0,0,0,0,0,5.354,5.3498,5.3612,5.3593,5.3592,5.3649,5.365,5.3651,5.3602,5.3599,5.3597,5.3594,5.3628,5.3632,5.3636,5.3712,0,0,5.3647,5.3649,0,0,0,0,0,0,0,0,5.3538,5.3545,5.3596,5.3595,5.3593,5.3618,5.3621,5.3671,5.3603,5.3598,5.3596,5.3593,5.3628,5.3632,5.3644,5.3714,5.3715,5.3648,5.365,5.3652,5.3653,0,0,0,0,0,0,0,5.3535,5.3543,5.3627,5.3596,5.3595,5.3582,5.3585,5.363,5.3627,5.3598,5.3595,5.36,5.3627,5.3641,5.3645,5.3715,5.3648,5.3651,5.3653,5.3655,5.385,5.3853,0,0,0,0,0,0,5.3534,5.354,5.3626,5.3628,5.3559,5.3586,5.359,5.3613,5.3627,5.3626,5.3602,5.3598,5.3636,5.364,5.3646,5.3737,5.3652,5.3655,5.3657,5.3848,5.3851,5.3854,0,0,0,0,0,0,5.3532,5.3542,5.3624,5.3583,5.3593,5.3591,5.3617,5.3615,5.3629,5.363,5.3629,5.3618,5.3634,5.364,5.3696,5.3737,5.3657,5.366,5.3844,5.3849,5.3853,5.3919,0,0,0,0,0,0,5.3529,5.3542,5.3572,5.3584,5.3595,5.3675,5.3619,5.3618,5.3636,5.363,5.3644,5.3643,5.3632,5.3691,5.37,5.3741,5.3663,5.384,5.3846,5.3851,5.3913,5.3925,5.3935,0,0,0,0,0,5.3525,5.3587,5.3573,5.3584,5.3632,5.3678,5.3684,5.3671,5.364,5.3669,5.367,5.3643,5.3731,5.3697,5.3707,5.375,5.3838,5.3844,5.3851,5.3908,5.3923,5.3935,0,0,0,0,0,0,5.3577,5.3589,5.3573,5.3642,5.366,5.367,5.3706,5.3687,5.3712,5.3705,5.3687,5.3691,5.3751,5.3756,5.3717,5.3825,5.3779,5.3788,5.382,5.3833,5.3844,5.3842,5.3666,0,0,0,0,0,5.3597,5.3635,5.3642,5.3702,5.3712,5.3708,5.3727,5.3716,5.3733,5.3739,5.3744,5.376,5.3792,5.3813,5.3842,5.3914,5.3916,5.3948,5.3959,5.3968,5.3976,5.4016,5.403,5.3876,5.3876,5.3876,0,0,5.3638,5.3649,5.3673,5.3713,5.3725,5.3763,5.3714,5.3756,5.3784,5.3745,5.3799,5.3803,5.382,5.3885,5.3914,5.3891,5.4019,5.3977,5.3984,5.3987,5.4024,5.4038,5.4051,5.388,5.3879,5.3879,0,0,5.3732,5.3744,5.3796,5.381,5.383,5.3828,5.384,5.3854,5.3856,5.391,5.3882,5.3914,5.3969,5.3982,5.3996,5.4098,5.4074,5.4108,5.4165,5.4204,5.4216,5.4227,5.4264,5.4277,5.4115,5.4116,5.4116,0,5.3779,5.3838,5.3825,5.387,5.3888,5.3857,5.3909,5.3923,5.3951,5.3964,5.3938,5.4007,5.4016,5.4084,5.4109,5.4121,5.4135,5.4106,5.4216,5.4226,5.4236,5.4271,5.4285,5.412,5.4119,5.4119,5.4118,0,5.3896,5.3936,5.3976,5.4006,5.4029,5.4077,5.4071,5.4095,5.4082,5.4082,5.4138,5.4148,5.4179,5.4195,5.4182,5.4261,5.4247,5.4219,5.4173,5.4255,5.4288,5.4301,5.4125,5.4124,5.4123,5.4122,0,0,5.4022,5.4047,5.4062,5.4076,5.4096,5.4127,5.4174,5.4206,5.4228,5.4248,5.4287,5.4335,5.431,5.4326,5.4314,5.4348,5.4429,5.4316,5.4316,5.4337,5.4518,5.4539,5.4555,5.4414,5.4416,5.4418,5.4517,0,5.4117,5.4201,5.4191,5.427,5.4308,5.4279,5.432,5.4337,5.4338,5.4369,5.437,5.4405,5.4369,5.4378,5.4411,5.4412,5.4465,5.4405,5.4449,5.4451,5.4446,5.4572,5.4594,5.4686,5.4529,5.4531,5.4533,0,5.4239,5.4266,5.435,5.4367,5.4382,5.4419,5.4449,5.4479,5.4497,5.4496,5.4515,5.4498,5.4544,5.4498,5.4561,5.4521,5.4538,5.4542,5.4545,5.4549,5.4497,5.4579,5.4716,5.473,5.4553,5.4551,5.455,0,5.4324,5.4381,5.4439,5.4452,5.4473,5.45,5.4509,5.4525,5.4546,5.4571,5.4584,5.4614,5.463,5.4653,5.4645,5.4612,5.471,5.4663,5.471,5.4711,5.4732,5.4731,5.4874,5.4743,5.4743,5.4743,5.4742,0,5.4431,5.4483,5.4478,5.4514,5.4571,5.456,5.4617,5.4623,5.4638,5.4673,5.4649,5.4683,5.4669,5.4702,5.4695,5.475,5.4757,5.4756,5.4754,5.4759,5.4759,5.477,5.4763,5.4746,5.4746,5.4745,5.4744,0,5.4535,5.4534,5.4596,5.4611,5.4616,5.4658,5.4671,5.4704,5.4704,5.4749,5.4759,5.4759,5.4796,5.479,5.483,5.4826,5.4894,5.4883,5.4888,5.4886,5.4934,5.493,5.5089,5.5109,5.4965,5.4967,5.4968,0,5.4604,5.4644,5.4664,5.4688,5.47,5.4737,5.4759,5.4749,5.4772,5.4797,5.4827,5.4863,5.4891,5.4951,5.4954,5.4985,5.4975,5.5029,5.498,5.4984,5.4977,5.4975,5.4979,5.5039,5.504,5.5042,5.5043,0,5.4726,5.4724,5.4757,5.479,5.4817,5.4843,5.4865,5.4885,5.4877,5.4904,5.4944,5.4965,5.5008,5.5044,5.5073,5.5082,5.5061,5.5059,5.5071,5.5076,5.5078,5.5078,5.4915,5.5055,5.5054,5.5053,5.5052,5.5052,5.4814,5.4849,5.487,5.4908,5.4924,5.4947,5.4979,5.4984,5.5017,5.5053,5.5044,5.5089,5.5106,5.5145,5.5156,5.519,5.517,5.5188,5.5193,5.5198,5.5204,5.5073,5.5195,5.5195,5.5195,5.5194,5.5194,0,5.4935,5.4948,5.4983,5.5017,5.5047,5.5027,5.5052,5.5077,5.5117,5.5136,5.5165,5.521,5.5245,5.5252,5.5285,5.531,5.5302,5.5319,5.5317,5.532,5.5219,5.5205,5.5326,5.5326,5.5326,5.5326,5.5326,5.5326,5.5002,5.506,5.5061,5.5127,5.5139,5.5184,5.5199,5.522,5.5235,5.5288,5.5317,5.5322,5.5336,5.537,5.5401,5.5402,5.5415,5.5436,5.5434,5.534,5.5327,5.5314,5.5301,5.5439,5.544,5.5531,5.5532,5.5533]}]]